Location: Newark
(54.4333°N, 18.5500°E)
Time: 23:46:58
(UTC+00:00)

Envisat - Pass Details

Date: 09 December 2019
Orbit: 764 x 766 km, 98.1° (Epoch: 18 January)

Event Time Altitude Azimuth Distance (km) Brightness Sun altitude
Rises 18:16:12 0° 220° (SW) 3,227 6.7 -32.6°
Reaches altitude 10° 18:19:43 10° 246° (WSW) 2,307 6.1 -33.1°
Maximum altitude 18:22:17 14° 277° (W) 2,055 6.0 -33.4°
Drops below altitude 10° 18:24:51 10° 307° (NW) 2,316 6.1 -33.8°
Sets 18:28:25 0° 333° (NNW) 3,248 6.7 -34.3°
